Burlington, WA
on Saturday, November 3, 2012

Saturday
Previous Day Next Day
Daily Summary
 ActualAverage (KBLI)Record (KBLI)
Temperature
Mean Temperature °F 46°F  
Max Temperature 57°F 53°F 67°F (2010)
Min Temperature 53°F 39°F 22°F (2002)
Degree Days
Heating Degree Days 10 19  
Month to date heating degree days 57  
Cooling Degree Days 0 0  
Month to date cooling degree days 0  
Year to date cooling degree days 42  
Growing Degree Days5 (Base °F )  
Moisture
Dew Point 55°F   
Average Humidity 97    
Maximum Humidity 100    
Minimum Humidity 82    
Precipitation
Precipitation 0.02 in 0.18 in 2.83 in (1989)
Month to date precipitation 0.55  
Year to date precipitation 26.36  
Wind
Wind Speed 8 mph   
Max Wind Speed 13 mph   
Max Gust Speed 23 mph   
Visibility 9 miles   
Events     

Key: T is trace of precipitation, MM is missing value
Source: NWS Daily Summary
Time(PDT)TemperatureDew PointHumidity Pressure Visibility Wind DirectionWind SpeedGust SpeedPrecipitationEvents Conditions
12:15 AM 53.6°F 53.6°F 100% 29.96 in 5.0 miles ESE 6.9 mph - 0.01 in   Overcast
12:35 AM 53.6°F 53.6°F 100% 29.95 in 10.0 miles ESE 11.5 mph - 0.01 in   Mostly Cloudy
12:55 AM 53.6°F 53.6°F 100% 29.96 in 10.0 miles ESE 9.2 mph - 0.01 in   Overcast
1:15 AM 53.6°F 53.6°F 100% 29.96 in 10.0 miles East 6.9 mph - 0.00 in   Overcast
1:35 AM 53.6°F 53.6°F 100% 29.96 in 10.0 miles SE 4.6 mph - 0.00 in   Overcast
1:55 AM 53.6°F 53.6°F 100% 29.96 in 10.0 miles SSE 3.5 mph - 0.00 in   Overcast
2:15 AM 53.6°F 53.6°F 100% 29.95 in 10.0 miles ESE 5.8 mph - 0.00 in   Overcast
2:35 AM 53.6°F 53.6°F 100% 29.96 in 10.0 miles SSE 5.8 mph - 0.00 in   Overcast
2:55 AM 53.6°F 53.6°F 100% 29.96 in 10.0 miles South 4.6 mph - 0.00 in   Overcast
3:15 AM 53.6°F 53.6°F 100% 29.96 in 10.0 miles SSE 5.8 mph - 0.00 in   Overcast
3:35 AM 53.6°F 53.6°F 100% 29.96 in 10.0 miles SSE 4.6 mph - 0.00 in   Mostly Cloudy
3:55 AM 53.6°F 53.6°F 100% 29.96 in 10.0 miles SE 5.8 mph - 0.00 in   Overcast
4:15 AM 53.6°F 53.6°F 100% 29.96 in 10.0 miles SE 5.8 mph - 0.00 in   Overcast
4:35 AM 55.4°F 51.8°F 88% 29.97 in 10.0 miles SSE 6.9 mph - 0.00 in   Overcast
5:15 AM 55.4°F 53.6°F 94% 29.97 in 10.0 miles SE 9.2 mph - 0.00 in   Overcast
5:35 AM 57.2°F 51.8°F 82% 29.97 in 10.0 miles SE 9.2 mph - 0.00 in   Overcast
6:15 AM 55.4°F 53.6°F 94% 29.98 in 10.0 miles SSE 12.7 mph 19.6 mph 0.00 in   Overcast
6:35 AM 55.4°F 53.6°F 94% 29.98 in 10.0 miles SE 11.5 mph - 0.00 in   Overcast
7:15 AM 55.4°F 53.6°F 94% 29.99 in 10.0 miles SE 6.9 mph - 0.00 in   Overcast
7:35 AM 55.4°F 53.6°F 94% 29.99 in 10.0 miles SE 10.4 mph - 0.00 in   Overcast
7:55 AM 55.4°F 53.6°F 94% 29.99 in 10.0 miles SE 8.1 mph - 0.00 in   Overcast
8:15 AM 55.4°F 53.6°F 94% 30.00 in 10.0 miles SE 10.4 mph - 0.00 in   Overcast
8:35 AM 55.4°F 53.6°F 94% 30.00 in 10.0 miles SE 9.2 mph - 0.00 in   Overcast
8:55 AM 55.4°F 53.6°F 94% 30.00 in 8.0 miles SE 10.4 mph - 0.00 in   Overcast
9:15 AM 57.2°F 53.6°F 88% 30.00 in 8.0 miles SSE 9.2 mph 17.3 mph 0.00 in   Overcast
9:35 AM 57.2°F 53.6°F 88% 30.00 in 9.0 miles SE 11.5 mph 17.3 mph 0.00 in   Overcast
9:55 AM 57.2°F 53.6°F 88% 29.99 in 9.0 miles SSE 12.7 mph 20.7 mph 0.00 in   Overcast
10:15 AM 57.2°F 53.6°F 88% 30.00 in 9.0 miles SSE 11.5 mph 16.1 mph 0.00 in   Overcast
10:35 AM 57.2°F 55.4°F 94% 30.00 in 9.0 miles SE 10.4 mph 18.4 mph 0.00 in   Overcast
10:55 AM 57.2°F 55.4°F 94% 30.00 in 9.0 miles SSE 10.4 mph 17.3 mph 0.00 in   Overcast
11:15 AM 57.2°F 55.4°F 94% 30.00 in 9.0 miles SSE 12.7 mph 18.4 mph 0.00 in   Overcast
11:35 AM 57.2°F 55.4°F 94% 30.00 in 9.0 miles SSE 12.7 mph 19.6 mph 0.00 in   Overcast
11:55 AM 57.2°F 55.4°F 94% 30.00 in 9.0 miles SE 9.2 mph - 0.00 in   Overcast
12:15 PM 57.2°F 55.4°F 94% 30.01 in 9.0 miles SSE 11.5 mph 16.1 mph 0.00 in   Overcast
12:35 PM 57.2°F 55.4°F 94% 30.01 in 8.0 miles South 11.5 mph 23.0 mph 0.00 in   Overcast
12:55 PM 57.2°F 55.4°F 94% 30.00 in 9.0 miles South 9.2 mph 16.1 mph 0.00 in   Overcast
1:15 PM 57.2°F 55.4°F 94% 30.01 in 7.0 miles South 10.4 mph 17.3 mph 0.00 in   Overcast
1:35 PM 57.2°F 55.4°F 94% 30.02 in 7.0 miles South 8.1 mph - 0.00 in   Overcast
1:55 PM 57.2°F 57.2°F 100% 30.01 in 5.0 miles South 6.9 mph - 0.00 in   Overcast
2:15 PM 57.2°F 55.4°F 94% 30.01 in 7.0 miles South 8.1 mph - 0.00 in   Overcast
2:35 PM 57.2°F 57.2°F 100% 30.02 in 9.0 miles South 6.9 mph - 0.00 in   Overcast
3:15 PM 57.2°F 57.2°F 100% 30.02 in 9.0 miles South 10.4 mph 19.6 mph 0.00 in   Overcast
3:35 PM 57.2°F 57.2°F 100% 30.02 in 9.0 miles South 10.4 mph 17.3 mph 0.00 in   Overcast
3:55 PM 57.2°F 57.2°F 100% 30.02 in 8.0 miles South 11.5 mph 17.3 mph 0.00 in   Overcast
4:15 PM 57.2°F 57.2°F 100% 30.03 in 9.0 miles South 9.2 mph 16.1 mph 0.00 in   Overcast
4:35 PM 57.2°F 57.2°F 100% 30.04 in 8.0 miles South 11.5 mph 17.3 mph 0.00 in   Overcast
4:55 PM 57.2°F 57.2°F 100% 30.06 in 9.0 miles South 8.1 mph 16.1 mph 0.00 in   Overcast
5:15 PM 57.2°F 57.2°F 100% 30.06 in 9.0 miles South 9.2 mph - 0.00 in   Overcast
5:35 PM 57.2°F 57.2°F 100% 30.06 in 9.0 miles South 8.1 mph - 0.00 in   Overcast
5:55 PM 57.2°F 57.2°F 100% 30.07 in 9.0 miles South 8.1 mph - 0.00 in   Overcast
6:15 PM 57.2°F 57.2°F 100% 30.08 in 10.0 miles South 9.2 mph - 0.00 in   Overcast
6:35 PM 57.2°F 57.2°F 100% 30.09 in 9.0 miles South 9.2 mph - 0.00 in   Overcast
6:55 PM 57.2°F 57.2°F 100% 30.10 in 6.0 miles South 8.1 mph - 0.00 in   Overcast
7:15 PM 57.2°F 57.2°F 100% 30.10 in 9.0 miles SSE 6.9 mph - 0.00 in   Overcast
7:35 PM 57.2°F 57.2°F 100% 30.12 in 10.0 miles South 5.8 mph - 0.00 in   Overcast
7:55 PM 57.2°F 57.2°F 100% 30.12 in 10.0 miles South 9.2 mph - 0.00 in   Overcast
8:15 PM 55.4°F 55.4°F 100% 30.13 in 8.0 miles South 6.9 mph - 0.00 in   Scattered Clouds
8:35 PM 55.4°F 55.4°F 100% 30.13 in 10.0 miles South 6.9 mph - 0.00 in   Partly Cloudy
8:55 PM 55.4°F 55.4°F 100% 30.13 in 10.0 miles South 3.5 mph - 0.00 in   Partly Cloudy
9:15 PM 55.4°F 55.4°F 100% 30.14 in 10.0 miles South 3.5 mph - 0.00 in   Clear
9:35 PM 53.6°F 53.6°F 100% 30.16 in 8.0 miles Calm Calm - 0.00 in   Clear
9:55 PM 55.4°F 55.4°F 100% 30.17 in 7.0 miles Calm Calm - 0.01 in   Mostly Cloudy
10:35 PM 53.6°F 53.6°F 100% 30.17 in 6.0 miles Calm Calm - 0.00 in   Scattered Clouds
10:55 PM 53.6°F 53.6°F 100% 30.17 in 8.0 miles Calm Calm - 0.00 in   Clear
11:15 PM 53.6°F 53.6°F 100% 30.17 in 7.0 miles Calm Calm - 0.00 in   Mostly Cloudy
11:35 PM 53.6°F 53.6°F 100% 30.18 in 5.0 miles Calm Calm - 0.00 in   Overcast
11:55 PM 53.6°F 53.6°F 100% 30.17 in 3.0 miles Calm Calm - 0.00 in   Overcast
Moon Phase
Nov. 03 Nov. 06 Nov. 13 Nov. 20 Nov. 28
Sunrise:07:59 AM (PDT) Moon Rise:09:24 PM (PDT)11/3
Sunset:05:46 PM (PDT) Moon Set:12:16 PM (PDT)11/3

Copyright © 2014 The Weather Underground, Inc.